Data supplied by UK-AIR on 28/4/2023
All Data GMT hour ending 
Status: R =Ratified P=Provisional,P*=As supplied
,,Billingham,,,,,,,,,,,,,,,,,,,,,,,
Date,time,"Nitric oxide",status,unit,"Nitrogen dioxide",status,unit,"Nitrogen oxides as nitrogen dioxide",status,unit
 
01-01-2022,01:00,0.00000,R,ugm-3,6.87087,R,ugm-3,6.87087,R,ugm-3
01-01-2022,02:00,0.14162,R,ugm-3,4.41166,R,ugm-3,4.62880,R,ugm-3
01-01-2022,03:00,0.17702,R,ugm-3,3.90535,R,ugm-3,4.17677,R,ugm-3
01-01-2022,04:00,0.17702,R,ugm-3,4.88173,R,ugm-3,5.15316,R,ugm-3
01-01-2022,05:00,0.03540,R,ugm-3,6.12950,R,ugm-3,6.18379,R,ugm-3
01-01-2022,06:00,0.00000,R,ugm-3,4.77345,R,ugm-3,4.77345,R,ugm-3
01-01-2022,07:00,0.77888,R,ugm-3,11.22756,R,ugm-3,12.42182,R,ugm-3
01-01-2022,08:00,0.24783,R,ugm-3,4.99014,R,ugm-3,5.37013,R,ugm-3
01-01-2022,09:00,0.07081,R,ugm-3,4.61064,R,ugm-3,4.71921,R,ugm-3
01-01-2022,10:00,0.07081,R,ugm-3,3.85122,R,ugm-3,3.95979,R,ugm-3
01-01-2022,11:00,0.35404,R,ugm-3,4.33909,R,ugm-3,4.88194,R,ugm-3
01-01-2022,12:00,0.28323,R,ugm-3,4.23069,R,ugm-3,4.66496,R,ugm-3
01-01-2022,13:00,0.07081,R,ugm-3,4.33942,R,ugm-3,4.44799,R,ugm-3
01-01-2022,14:00,0.31863,R,ugm-3,4.55611,R,ugm-3,5.04467,R,ugm-3
01-01-2022,15:00,0.17702,R,ugm-3,3.74261,R,ugm-3,4.01404,R,ugm-3
01-01-2022,16:00,0.24783,R,ugm-3,4.23073,R,ugm-3,4.61072,R,ugm-3
01-01-2022,17:00,0.17702,R,ugm-3,4.39354,R,ugm-3,4.66496,R,ugm-3
01-01-2022,18:00,0.21242,R,ugm-3,5.04442,R,ugm-3,5.37013,R,ugm-3
01-01-2022,19:00,0.24783,R,ugm-3,4.99014,R,ugm-3,5.37013,R,ugm-3
01-01-2022,20:00,0.10621,R,ugm-3,4.61060,R,ugm-3,4.77345,R,ugm-3
01-01-2022,21:00,0.14162,R,ugm-3,4.44782,R,ugm-3,4.66496,R,ugm-3
01-01-2022,22:00,0.03540,R,ugm-3,3.47156,R,ugm-3,3.52584,R,ugm-3
01-01-2022,23:00,-0.07081,R,ugm-3,3.20046,R,ugm-3,3.09189,R,ugm-3
01-01-2022,24:00,0.07081,R,ugm-3,3.14606,R,ugm-3,3.25463,R,ugm-3
02-01-2022,01:00,-0.09448,R,ugm-3,3.61973,R,ugm-3,3.47485,R,ugm-3
02-01-2022,02:00,0.14173,R,ugm-3,3.47472,R,ugm-3,3.69203,R,ugm-3
02-01-2022,03:00,-0.03543,R,ugm-3,2.66047,R,ugm-3,2.60614,R,ugm-3
02-01-2022,04:00,0.00000,R,ugm-3,1.68313,R,ugm-3,1.68313,R,ugm-3
02-01-2022,05:00,0.07086,R,ugm-3,1.14012,R,ugm-3,1.24878,R,ugm-3
02-01-2022,06:00,0.00000,R,ugm-3,1.73743,R,ugm-3,1.73743,R,ugm-3
02-01-2022,07:00,0.03543,R,ugm-3,1.95457,R,ugm-3,2.00890,R,ugm-3
02-01-2022,08:00,0.24802,R,ugm-3,2.22584,R,ugm-3,2.60614,R,ugm-3
02-01-2022,09:00,0.17716,R,ugm-3,2.76885,R,ugm-3,3.04049,R,ugm-3
02-01-2022,10:00,0.35432,R,ugm-3,3.52881,R,ugm-3,4.07209,R,ugm-3
02-01-2022,11:00,0.35432,R,ugm-3,3.69169,R,ugm-3,4.23498,R,ugm-3
02-01-2022,12:00,0.14173,R,ugm-3,4.28914,R,ugm-3,4.50645,R,ugm-3
02-01-2022,13:00,0.31889,R,ugm-3,4.12608,R,ugm-3,4.61504,R,ugm-3
02-01-2022,14:00,0.31889,R,ugm-3,4.83191,R,ugm-3,5.32087,R,ugm-3
02-01-2022,15:00,0.21259,R,ugm-3,5.42925,R,ugm-3,5.75522,R,ugm-3
02-01-2022,16:00,0.24802,R,ugm-3,6.18934,R,ugm-3,6.56964,R,ugm-3
02-01-2022,17:00,0.35432,R,ugm-3,6.62360,R,ugm-3,7.16688,R,ugm-3
02-01-2022,18:00,0.28346,R,ugm-3,6.08072,R,ugm-3,6.51535,R,ugm-3
02-01-2022,19:00,0.17716,R,ugm-3,4.72346,R,ugm-3,4.99510,R,ugm-3
02-01-2022,20:00,0.21259,R,ugm-3,4.28907,R,ugm-3,4.61504,R,ugm-3
02-01-2022,21:00,0.07086,R,ugm-3,3.25761,R,ugm-3,3.36626,R,ugm-3
02-01-2022,22:00,0.03543,R,ugm-3,2.38893,R,ugm-3,2.44326,R,ugm-3
02-01-2022,23:00,0.24802,R,ugm-3,1.79149,R,ugm-3,2.17178,R,ugm-3
02-01-2022,24:00,0.10630,R,ugm-3,1.30297,R,ugm-3,1.46595,R,ugm-3
03-01-2022,01:00,0.18912,R,ugm-3,1.23169,R,ugm-3,1.52167,R,ugm-3
03-01-2022,02:00,-0.09456,R,ugm-3,0.94206,R,ugm-3,0.79707,R,ugm-3
03-01-2022,03:00,0.10638,R,ugm-3,0.65207,R,ugm-3,0.81518,R,ugm-3
03-01-2022,04:00,0.03546,R,ugm-3,0.76081,R,ugm-3,0.81518,R,ugm-3
03-01-2022,05:00,0.14184,R,ugm-3,0.76073,R,ugm-3,0.97822,R,ugm-3
03-01-2022,06:00,0.21276,R,ugm-3,1.08675,R,ugm-3,1.41298,R,ugm-3
03-01-2022,07:00,0.31914,R,ugm-3,1.19536,R,ugm-3,1.68471,R,ugm-3
03-01-2022,08:00,0.21276,R,ugm-3,2.01062,R,ugm-3,2.33685,R,ugm-3
03-01-2022,09:00,0.42553,R,ugm-3,2.60826,R,ugm-3,3.26072,R,ugm-3
03-01-2022,10:00,0.35461,R,ugm-3,4.12998,R,ugm-3,4.67370,R,ugm-3
03-01-2022,11:00,0.67375,R,ugm-3,4.99927,R,ugm-3,6.03234,R,ugm-3
03-01-2022,12:00,1.09927,R,ugm-3,4.67288,R,ugm-3,6.35841,R,ugm-3
03-01-2022,13:00,1.56026,R,ugm-3,5.48771,R,ugm-3,7.88008,R,ugm-3
03-01-2022,14:00,1.17019,R,ugm-3,6.41187,R,ugm-3,8.20615,R,ugm-3
03-01-2022,15:00,0.95743,R,ugm-3,7.22722,R,ugm-3,8.69526,R,ugm-3
03-01-2022,16:00,1.27658,R,ugm-3,8.31388,R,ugm-3,10.27127,R,ugm-3
03-01-2022,17:00,0.99289,R,ugm-3,7.49891,R,ugm-3,9.02133,R,ugm-3
03-01-2022,18:00,0.28368,R,ugm-3,3.04313,R,ugm-3,3.47810,R,ugm-3
03-01-2022,19:00,0.28368,R,ugm-3,3.64093,R,ugm-3,4.07590,R,ugm-3
03-01-2022,20:00,0.28368,R,ugm-3,3.53224,R,ugm-3,3.96721,R,ugm-3
03-01-2022,21:00,0.28368,R,ugm-3,2.88009,R,ugm-3,3.31507,R,ugm-3
03-01-2022,22:00,0.24822,R,ugm-3,2.60839,R,ugm-3,2.98900,R,ugm-3
03-01-2022,23:00,0.28368,R,ugm-3,3.53224,R,ugm-3,3.96721,R,ugm-3
03-01-2022,24:00,0.46099,R,ugm-3,6.14068,R,ugm-3,6.84752,R,ugm-3
04-01-2022,01:00,0.23659,R,ugm-3,4.06145,R,ugm-3,4.42422,R,ugm-3
04-01-2022,02:00,0.23659,R,ugm-3,3.62628,R,ugm-3,3.98905,R,ugm-3
04-01-2022,03:00,0.28391,R,ugm-3,4.67791,R,ugm-3,5.11324,R,ugm-3
04-01-2022,04:00,0.63880,R,ugm-3,4.73212,R,ugm-3,5.71160,R,ugm-3
04-01-2022,05:00,3.15851,R,ugm-3,6.36262,R,ugm-3,11.20561,R,ugm-3
04-01-2022,06:00,2.62618,R,ugm-3,6.90688,R,ugm-3,10.93363,R,ugm-3
04-01-2022,07:00,7.48816,R,ugm-3,21.75437,R,ugm-3,33.23605,R,ugm-3
04-01-2022,08:00,15.47316,R,ugm-3,44.59639,R,ugm-3,68.32158,R,ugm-3
04-01-2022,09:00,11.95976,R,ugm-3,52.64895,R,ugm-3,70.98699,R,ugm-3
04-01-2022,10:00,12.95345,R,ugm-3,44.81535,R,ugm-3,64.67703,R,ugm-3
04-01-2022,11:00,5.60725,R,ugm-3,18.32844,R,ugm-3,26.92610,R,ugm-3
04-01-2022,12:00,3.51340,R,ugm-3,10.87731,R,ugm-3,16.26445,R,ugm-3
04-01-2022,13:00,3.86829,R,ugm-3,10.98591,R,ugm-3,16.91721,R,ugm-3
04-01-2022,14:00,4.11671,R,ugm-3,9.46268,R,ugm-3,15.77489,R,ugm-3
04-01-2022,15:00,3.69085,R,ugm-3,11.36678,R,ugm-3,17.02600,R,ugm-3
04-01-2022,16:00,3.72634,R,ugm-3,14.14096,R,ugm-3,19.85460,R,ugm-3
04-01-2022,17:00,3.54889,R,ugm-3,13.97787,R,ugm-3,19.41943,R,ugm-3
04-01-2022,18:00,2.91009,R,ugm-3,12.78151,R,ugm-3,17.24358,R,ugm-3
04-01-2022,19:00,1.98738,R,ugm-3,8.64790,R,ugm-3,11.69518,R,ugm-3
04-01-2022,20:00,1.02918,R,ugm-3,5.49345,R,ugm-3,7.07150,R,ugm-3
04-01-2022,21:00,0.85173,R,ugm-3,4.35123,R,ugm-3,5.65720,R,ugm-3
04-01-2022,22:00,0.56782,R,ugm-3,3.42665,R,ugm-3,4.29730,R,ugm-3
04-01-2022,23:00,0.46136,R,ugm-3,2.66516,R,ugm-3,3.37256,R,ugm-3
04-01-2022,24:00,0.14196,R,ugm-3,1.41422,R,ugm-3,1.63189,R,ugm-3
05-01-2022,01:00,0.14207,R,ugm-3,1.30668,R,ugm-3,1.52452,R,ugm-3
05-01-2022,02:00,0.23678,R,ugm-3,1.52443,R,ugm-3,1.88749,R,ugm-3
05-01-2022,03:00,0.24862,R,ugm-3,1.03441,R,ugm-3,1.41562,R,ugm-3
05-01-2022,04:00,0.28414,R,ugm-3,0.92550,R,ugm-3,1.36117,R,ugm-3
05-01-2022,05:00,0.60380,R,ugm-3,2.83103,R,ugm-3,3.75684,R,ugm-3
05-01-2022,06:00,2.09552,R,ugm-3,4.89951,R,ugm-3,8.11260,R,ugm-3
05-01-2022,07:00,10.44210,R,ugm-3,11.21248,R,ugm-3,27.22348,R,ugm-3
05-01-2022,08:00,3.40967,R,ugm-3,7.62140,R,ugm-3,12.84948,R,ugm-3
05-01-2022,09:00,3.19656,R,ugm-3,10.34382,R,ugm-3,15.24515,R,ugm-3
05-01-2022,10:00,5.32760,R,ugm-3,10.23420,R,ugm-3,18.40307,R,ugm-3
05-01-2022,11:00,7.15083,R,ugm-3,8.41867,R,ugm-3,19.38312,R,ugm-3
05-01-2022,12:00,8.70175,R,ugm-3,9.74301,R,ugm-3,23.08551,R,ugm-3
05-01-2022,13:00,4.12001,R,ugm-3,7.83894,R,ugm-3,14.15621,R,ugm-3
05-01-2022,14:00,3.26760,R,ugm-3,7.24032,R,ugm-3,12.25057,R,ugm-3
05-01-2022,15:00,2.77035,R,ugm-3,9.41837,R,ugm-3,13.66619,R,ugm-3
05-01-2022,16:00,2.84139,R,ugm-3,14.37302,R,ugm-3,18.72976,R,ugm-3
05-01-2022,17:00,3.09001,R,ugm-3,16.65971,R,ugm-3,21.39766,R,ugm-3
05-01-2022,18:00,5.39864,R,ugm-3,21.99471,R,ugm-3,30.27251,R,ugm-3
05-01-2022,19:00,1.95346,R,ugm-3,16.27897,R,ugm-3,19.27423,R,ugm-3
05-01-2022,20:00,2.45070,R,ugm-3,23.68359,R,ugm-3,27.44127,R,ugm-3
05-01-2022,21:00,3.12553,R,ugm-3,26.51460,R,ugm-3,31.30700,R,ugm-3
05-01-2022,22:00,2.09552,R,ugm-3,23.79260,R,ugm-3,27.00569,R,ugm-3
05-01-2022,23:00,1.24311,R,ugm-3,33.43001,R,ugm-3,35.33608,R,ugm-3
05-01-2022,24:00,1.63380,R,ugm-3,29.78193,R,ugm-3,32.28705,R,ugm-3
06-01-2022,01:00,0.23685,R,ugm-3,18.42185,R,ugm-3,18.78502,R,ugm-3
06-01-2022,02:00,1.08953,R,ugm-3,20.81341,R,ugm-3,22.48400,R,ugm-3
06-01-2022,03:00,0.28423,R,ugm-3,17.62392,R,ugm-3,18.05973,R,ugm-3
06-01-2022,04:00,0.42634,R,ugm-3,11.31358,R,ugm-3,11.96729,R,ugm-3
06-01-2022,05:00,0.67503,R,ugm-3,10.33389,R,ugm-3,11.36893,R,ugm-3
06-01-2022,06:00,8.91756,R,ugm-3,23.15322,R,ugm-3,36.82661,R,ugm-3
06-01-2022,07:00,52.26185,R,ugm-3,40.84470,R,ugm-3,120.97841,R,ugm-3
06-01-2022,08:00,18.43909,R,ugm-3,52.23435,R,ugm-3,80.50722,R,ugm-3
06-01-2022,09:00,5.68450,R,ugm-3,43.12401,R,ugm-3,51.84012,R,ugm-3
06-01-2022,10:00,2.48697,R,ugm-3,22.29715,R,ugm-3,26.11045,R,ugm-3
06-01-2022,11:00,1.98957,R,ugm-3,19.08885,R,ugm-3,22.13948,R,ugm-3
06-01-2022,12:00,1.20796,R,ugm-3,14.24927,R,ugm-3,16.10145,R,ugm-3
06-01-2022,13:00,2.73566,R,ugm-3,25.77799,R,ugm-3,29.97262,R,ugm-3
06-01-2022,14:00,2.62908,R,ugm-3,26.70298,R,ugm-3,30.73418,R,ugm-3
06-01-2022,15:00,3.16200,R,ugm-3,26.53860,R,ugm-3,31.38694,R,ugm-3
06-01-2022,16:00,2.23827,R,ugm-3,23.44004,R,ugm-3,26.87200,R,ugm-3
06-01-2022,17:00,1.13690,R,ugm-3,19.68911,R,ugm-3,21.43233,R,ugm-3
06-01-2022,18:00,0.85267,R,ugm-3,19.03698,R,ugm-3,20.34439,R,ugm-3
06-01-2022,19:00,0.53292,R,ugm-3,15.44750,R,ugm-3,16.26463,R,ugm-3
06-01-2022,20:00,0.39081,R,ugm-3,14.19669,R,ugm-3,14.79592,R,ugm-3
06-01-2022,21:00,0.28423,R,ugm-3,11.58588,R,ugm-3,12.02169,R,ugm-3
06-01-2022,22:00,0.24870,R,ugm-3,5.87430,R,ugm-3,6.25563,R,ugm-3
06-01-2022,23:00,0.31975,R,ugm-3,4.62302,R,ugm-3,5.11330,R,ugm-3
06-01-2022,24:00,0.17764,R,ugm-3,3.91617,R,ugm-3,4.18855,R,ugm-3
07-01-2022,01:00,0.28431,R,ugm-3,1.23069,R,ugm-3,1.66663,R,ugm-3
07-01-2022,02:00,0.18954,R,ugm-3,1.30354,R,ugm-3,1.59417,R,ugm-3
07-01-2022,03:00,0.35539,R,ugm-3,4.45496,R,ugm-3,4.99989,R,ugm-3
07-01-2022,04:00,0.03554,R,ugm-3,1.63025,R,ugm-3,1.68474,R,ugm-3
07-01-2022,05:00,0.31985,R,ugm-3,2.22690,R,ugm-3,2.71733,R,ugm-3
07-01-2022,06:00,0.39093,R,ugm-3,3.58527,R,ugm-3,4.18469,R,ugm-3
07-01-2022,07:00,4.30020,R,ugm-3,10.57997,R,ugm-3,17.17352,R,ugm-3
07-01-2022,08:00,3.05634,R,ugm-3,16.12841,R,ugm-3,20.81474,R,ugm-3
07-01-2022,09:00,2.27449,R,ugm-3,28.25090,R,ugm-3,31.73840,R,ugm-3
07-01-2022,10:00,2.84311,R,ugm-3,25.25951,R,ugm-3,29.61888,R,ugm-3
07-01-2022,11:00,2.66541,R,ugm-3,17.97780,R,ugm-3,22.06471,R,ugm-3
07-01-2022,12:00,2.20341,R,ugm-3,14.88194,R,ugm-3,18.26045,R,ugm-3
07-01-2022,13:00,4.05143,R,ugm-3,12.42877,R,ugm-3,18.64088,R,ugm-3
07-01-2022,14:00,2.34557,R,ugm-3,10.80536,R,ugm-3,14.40184,R,ugm-3
07-01-2022,15:00,4.01589,R,ugm-3,16.28752,R,ugm-3,22.44514,R,ugm-3
07-01-2022,16:00,5.40191,R,ugm-3,25.41207,R,ugm-3,33.69488,R,ugm-3
07-01-2022,17:00,2.91419,R,ugm-3,35.42203,R,ugm-3,39.89039,R,ugm-3
07-01-2022,18:00,3.37619,R,ugm-3,28.19204,R,ugm-3,33.36880,R,ugm-3
07-01-2022,19:00,2.13233,R,ugm-3,30.42535,R,ugm-3,33.69488,R,ugm-3
07-01-2022,20:00,1.38602,R,ugm-3,23.79812,R,ugm-3,25.92332,R,ugm-3
07-01-2022,21:00,0.67524,R,ugm-3,26.84444,R,ugm-3,27.87979,R,ugm-3
07-01-2022,22:00,0.74632,R,ugm-3,24.94202,R,ugm-3,26.08636,R,ugm-3
07-01-2022,23:00,0.63970,R,ugm-3,20.15996,R,ugm-3,21.14082,R,ugm-3
07-01-2022,24:00,0.28431,R,ugm-3,16.03107,R,ugm-3,16.46701,R,ugm-3
08-01-2022,01:00,0.23700,R,ugm-3,10.06152,R,ugm-3,10.42491,R,ugm-3
08-01-2022,02:00,0.04740,R,ugm-3,7.96319,R,ugm-3,8.03586,R,ugm-3
08-01-2022,03:00,0.24885,R,ugm-3,7.49142,R,ugm-3,7.87298,R,ugm-3
08-01-2022,04:00,1.31534,R,ugm-3,14.10921,R,ugm-3,16.12603,R,ugm-3
08-01-2022,05:00,1.31534,R,ugm-3,14.32639,R,ugm-3,16.34321,R,ugm-3
08-01-2022,06:00,4.15930,R,ugm-3,22.29098,R,ugm-3,28.66849,R,ugm-3
08-01-2022,07:00,6.75443,R,ugm-3,25.15319,R,ugm-3,35.50983,R,ugm-3
08-01-2022,08:00,3.30611,R,ugm-3,18.71251,R,ugm-3,23.78182,R,ugm-3
08-01-2022,09:00,1.17314,R,ugm-3,15.30458,R,ugm-3,17.10336,R,ugm-3
08-01-2022,10:00,0.88874,R,ugm-3,13.13442,R,ugm-3,14.49713,R,ugm-3
08-01-2022,11:00,0.63989,R,ugm-3,9.49805,R,ugm-3,10.47920,R,ugm-3
08-01-2022,12:00,1.59973,R,ugm-3,13.18447,R,ugm-3,15.63736,R,ugm-3
08-01-2022,13:00,1.38644,R,ugm-3,17.42086,R,ugm-3,19.54670,R,ugm-3
08-01-2022,14:00,2.91507,R,ugm-3,23.00426,R,ugm-3,27.47397,R,ugm-3
08-01-2022,15:00,4.30150,R,ugm-3,24.51628,R,ugm-3,31.11183,R,ugm-3
08-01-2022,16:00,2.16853,R,ugm-3,24.52902,R,ugm-3,27.85404,R,ugm-3
08-01-2022,17:00,3.62606,R,ugm-3,25.66054,R,ugm-3,31.22042,R,ugm-3
08-01-2022,18:00,3.02172,R,ugm-3,22.29777,R,ugm-3,26.93101,R,ugm-3
08-01-2022,19:00,1.84858,R,ugm-3,14.59469,R,ugm-3,17.42914,R,ugm-3
08-01-2022,20:00,1.59973,R,ugm-3,15.41062,R,ugm-3,17.86351,R,ugm-3
08-01-2022,21:00,1.03094,R,ugm-3,16.39135,R,ugm-3,17.97210,R,ugm-3
08-01-2022,22:00,0.49769,R,ugm-3,15.30861,R,ugm-3,16.07173,R,ugm-3
08-01-2022,23:00,0.42660,R,ugm-3,10.47665,R,ugm-3,11.13076,R,ugm-3
08-01-2022,24:00,0.24885,R,ugm-3,8.68593,R,ugm-3,9.06750,R,ugm-3
09-01-2022,01:00,0.23707,R,ugm-3,7.15864,R,ugm-3,7.52214,R,ugm-3
09-01-2022,02:00,0.42672,R,ugm-3,3.83005,R,ugm-3,4.48435,R,ugm-3
09-01-2022,03:00,0.35560,R,ugm-3,3.25198,R,ugm-3,3.79723,R,ugm-3
09-01-2022,04:00,0.32004,R,ugm-3,2.49281,R,ugm-3,2.98354,R,ugm-3
09-01-2022,05:00,0.17780,R,ugm-3,3.63310,R,ugm-3,3.90573,R,ugm-3
09-01-2022,06:00,0.32004,R,ugm-3,5.09663,R,ugm-3,5.58736,R,ugm-3
09-01-2022,07:00,0.74677,R,ugm-3,7.04615,R,ugm-3,8.19117,R,ugm-3
09-01-2022,08:00,1.03125,R,ugm-3,13.44497,R,ugm-3,15.02619,R,ugm-3
09-01-2022,09:00,0.92457,R,ugm-3,17.94824,R,ugm-3,19.36589,R,ugm-3
09-01-2022,10:00,1.35129,R,ugm-3,17.02270,R,ugm-3,19.09466,R,ugm-3
09-01-2022,11:00,1.81358,R,ugm-3,13.05911,R,ugm-3,15.83989,R,ugm-3
09-01-2022,12:00,1.77802,R,ugm-3,12.29994,R,ugm-3,15.02619,R,ugm-3
09-01-2022,13:00,1.60022,R,ugm-3,11.10792,R,ugm-3,13.56155,R,ugm-3
09-01-2022,14:00,1.03125,R,ugm-3,10.35293,R,ugm-3,11.93416,R,ugm-3
09-01-2022,15:00,0.96013,R,ugm-3,12.03512,R,ugm-3,13.50730,R,ugm-3
09-01-2022,16:00,0.71121,R,ugm-3,14.26117,R,ugm-3,15.35167,R,ugm-3
09-01-2022,17:00,1.13793,R,ugm-3,27.00568,R,ugm-3,28.75048,R,ugm-3
09-01-2022,18:00,1.45797,R,ugm-3,31.55985,R,ugm-3,33.79537,R,ugm-3
09-01-2022,19:00,1.56466,R,ugm-3,25.86316,R,ugm-3,28.26226,R,ugm-3
09-01-2022,20:00,0.67565,R,ugm-3,16.53979,R,ugm-3,17.57576,R,ugm-3
09-01-2022,21:00,0.81789,R,ugm-3,17.29812,R,ugm-3,18.55220,R,ugm-3
09-01-2022,22:00,0.56897,R,ugm-3,18.76472,R,ugm-3,19.63712,R,ugm-3
09-01-2022,23:00,1.74246,R,ugm-3,32.42555,R,ugm-3,35.09728,R,ugm-3
09-01-2022,24:00,0.88901,R,ugm-3,22.23396,R,ugm-3,23.59709,R,ugm-3
10-01-2022,01:00,0.33200,R,ugm-3,16.47236,R,ugm-3,16.98141,R,ugm-3
10-01-2022,02:00,0.09486,R,ugm-3,11.48863,R,ugm-3,11.63407,R,ugm-3
10-01-2022,03:00,0.28457,R,ugm-3,11.43259,R,ugm-3,11.86892,R,ugm-3
10-01-2022,04:00,0.17786,R,ugm-3,14.79378,R,ugm-3,15.06649,R,ugm-3
10-01-2022,05:00,2.02755,R,ugm-3,21.65870,R,ugm-3,24.76757,R,ugm-3
10-01-2022,06:00,6.18937,R,ugm-3,27.95919,R,ugm-3,37.44943,R,ugm-3
10-01-2022,07:00,15.08215,R,ugm-3,33.99694,R,ugm-3,57.12258,R,ugm-3
10-01-2022,08:00,11.38275,R,ugm-3,44.98047,R,ugm-3,62.43378,R,ugm-3
10-01-2022,09:00,15.97143,R,ugm-3,54.63697,R,ugm-3,79.12615,R,ugm-3
10-01-2022,10:00,8.18135,R,ugm-3,40.24233,R,ugm-3,52.78690,R,ugm-3
10-01-2022,11:00,2.56112,R,ugm-3,26.26017,R,ugm-3,30.18717,R,ugm-3
10-01-2022,12:00,2.48998,R,ugm-3,20.46189,R,ugm-3,24.27981,R,ugm-3
10-01-2022,13:00,1.77856,R,ugm-3,19.38489,R,ugm-3,22.11197,R,ugm-3
10-01-2022,14:00,1.49399,R,ugm-3,18.89989,R,ugm-3,21.19063,R,ugm-3
10-01-2022,15:00,1.67184,R,ugm-3,26.16042,R,ugm-3,28.72388,R,ugm-3
10-01-2022,16:00,1.42284,R,ugm-3,25.78347,R,ugm-3,27.96513,R,ugm-3
10-01-2022,17:00,1.03156,R,ugm-3,28.76805,R,ugm-3,30.34976,R,ugm-3
10-01-2022,18:00,0.64028,R,ugm-3,28.88024,R,ugm-3,29.86199,R,ugm-3
10-01-2022,19:00,1.31613,R,ugm-3,28.06074,R,ugm-3,30.07878,R,ugm-3
10-01-2022,20:00,0.60471,R,ugm-3,23.46099,R,ugm-3,24.38820,R,ugm-3
10-01-2022,21:00,0.71142,R,ugm-3,23.78513,R,ugm-3,24.87596,R,ugm-3
10-01-2022,22:00,0.39128,R,ugm-3,19.50676,R,ugm-3,20.10671,R,ugm-3
10-01-2022,23:00,0.32014,R,ugm-3,17.06863,R,ugm-3,17.55950,R,ugm-3
10-01-2022,24:00,0.28457,R,ugm-3,12.62490,R,ugm-3,13.06124,R,ugm-3
11-01-2022,01:00,0.04744,R,ugm-3,13.06664,R,ugm-3,13.13938,R,ugm-3
11-01-2022,02:00,0.37954,R,ugm-3,14.21790,R,ugm-3,14.79985,R,ugm-3
11-01-2022,03:00,0.17791,R,ugm-3,13.31781,R,ugm-3,13.59060,R,ugm-3
11-01-2022,04:00,0.14233,R,ugm-3,11.04410,R,ugm-3,11.26233,R,ugm-3
11-01-2022,05:00,1.31653,R,ugm-3,12.22170,R,ugm-3,14.24035,R,ugm-3
11-01-2022,06:00,3.59377,R,ugm-3,19.34256,R,ugm-3,24.85292,R,ugm-3
11-01-2022,07:00,37.46769,R,ugm-3,36.70989,R,ugm-3,94.15955,R,ugm-3
11-01-2022,08:00,44.05033,R,ugm-3,54.12271,R,ugm-3,121.66561,R,ugm-3
11-01-2022,09:00,48.03550,R,ugm-3,54.99701,R,ugm-3,128.65042,R,ugm-3
11-01-2022,10:00,18.39582,R,ugm-3,42.29130,R,ugm-3,70.49783,R,ugm-3
11-01-2022,11:00,10.78130,R,ugm-3,33.55377,R,ugm-3,50.08486,R,ugm-3
11-01-2022,12:00,7.22312,R,ugm-3,24.71508,R,ugm-3,35.79037,R,ugm-3
11-01-2022,13:00,6.40473,R,ugm-3,24.94115,R,ugm-3,34.76160,R,ugm-3
11-01-2022,14:00,7.15195,R,ugm-3,28.61441,R,ugm-3,39.58058,R,ugm-3
11-01-2022,15:00,6.65381,R,ugm-3,32.19380,R,ugm-3,42.39616,R,ugm-3
11-01-2022,16:00,6.51148,R,ugm-3,40.47976,R,ugm-3,50.46389,R,ugm-3
11-01-2022,17:00,6.90288,R,ugm-3,49.40928,R,ugm-3,59.99355,R,ugm-3
11-01-2022,18:00,3.23795,R,ugm-3,46.04056,R,ugm-3,51.00534,R,ugm-3
11-01-2022,19:00,10.81688,R,ugm-3,53.09999,R,ugm-3,69.68564,R,ugm-3
11-01-2022,20:00,5.40844,R,ugm-3,52.72949,R,ugm-3,61.02232,R,ugm-3
11-01-2022,21:00,1.63677,R,ugm-3,36.58360,R,ugm-3,39.09327,R,ugm-3
11-01-2022,22:00,0.88955,R,ugm-3,27.00845,R,ugm-3,28.37240,R,ugm-3
11-01-2022,23:00,0.74722,R,ugm-3,19.37554,R,ugm-3,20.52126,R,ugm-3
11-01-2022,24:00,0.39140,R,ugm-3,13.96508,R,ugm-3,14.56522,R,ugm-3
12-01-2022,01:00,0.56948,R,ugm-3,13.40805,R,ugm-3,14.28124,R,ugm-3
12-01-2022,02:00,0.28474,R,ugm-3,9.80550,R,ugm-3,10.24210,R,ugm-3
12-01-2022,03:00,0.24915,R,ugm-3,10.16662,R,ugm-3,10.54864,R,ugm-3
12-01-2022,04:00,0.07119,R,ugm-3,7.24785,R,ugm-3,7.35700,R,ugm-3
12-01-2022,05:00,0.21356,R,ugm-3,4.64935,R,ugm-3,4.97680,R,ugm-3
12-01-2022,06:00,0.46270,R,ugm-3,8.37859,R,ugm-3,9.08806,R,ugm-3
12-01-2022,07:00,4.94737,R,ugm-3,16.10801,R,ugm-3,23.69388,R,ugm-3
12-01-2022,08:00,2.59826,R,ugm-3,28.90619,R,ugm-3,32.89013,R,ugm-3
12-01-2022,09:00,2.34911,R,ugm-3,29.66688,R,ugm-3,33.26880,R,ugm-3
12-01-2022,10:00,6.97615,R,ugm-3,38.42220,R,ugm-3,49.11881,R,ugm-3
12-01-2022,11:00,,,,,,,,,
12-01-2022,12:00,4.60331,R,ugm-3,12.27185,R,ugm-3,19.33016,R,ugm-3
12-01-2022,13:00,2.17115,R,ugm-3,9.32932,R,ugm-3,12.65837,R,ugm-3
12-01-2022,14:00,2.17115,R,ugm-3,10.08666,R,ugm-3,13.41571,R,ugm-3
12-01-2022,15:00,1.95759,R,ugm-3,14.79585,R,ugm-3,17.79745,R,ugm-3
12-01-2022,16:00,1.38811,R,ugm-3,16.31819,R,ugm-3,18.44660,R,ugm-3
12-01-2022,17:00,1.31693,R,ugm-3,21.56643,R,ugm-3,23.58568,R,ugm-3
12-01-2022,18:00,2.81182,R,ugm-3,36.36851,R,ugm-3,40.67989,R,ugm-3
12-01-2022,19:00,1.49489,R,ugm-3,27.51455,R,ugm-3,29.80668,R,ugm-3
12-01-2022,20:00,0.74745,R,ugm-3,16.43501,R,ugm-3,17.58107,R,ugm-3
12-01-2022,21:00,0.28474,R,ugm-3,12.27587,R,ugm-3,12.71247,R,ugm-3
12-01-2022,22:00,0.17796,R,ugm-3,12.81826,R,ugm-3,13.09114,R,ugm-3
12-01-2022,23:00,0.28474,R,ugm-3,12.54635,R,ugm-3,12.98295,R,ugm-3
12-01-2022,24:00,0.28474,R,ugm-3,12.54635,R,ugm-3,12.98295,R,ugm-3
13-01-2022,01:00,0.09487,R,ugm-3,5.47844,R,ugm-3,5.62391,R,ugm-3
13-01-2022,02:00,0.37949,R,ugm-3,3.74421,R,ugm-3,4.32608,R,ugm-3
13-01-2022,03:00,0.32019,R,ugm-3,5.78186,R,ugm-3,6.27282,R,ugm-3
13-01-2022,04:00,0.21346,R,ugm-3,6.48627,R,ugm-3,6.81358,R,ugm-3
13-01-2022,05:00,0.53366,R,ugm-3,10.97031,R,ugm-3,11.78857,R,ugm-3
13-01-2022,06:00,0.71154,R,ugm-3,11.88723,R,ugm-3,12.97824,R,ugm-3
13-01-2022,07:00,1.10289,R,ugm-3,13.55836,R,ugm-3,15.24943,R,ugm-3
13-01-2022,08:00,2.27693,R,ugm-3,23.54675,R,ugm-3,27.03800,R,ugm-3
13-01-2022,09:00,4.09136,R,ugm-3,35.36519,R,ugm-3,41.63852,R,ugm-3
13-01-2022,10:00,3.27309,R,ugm-3,22.34379,R,ugm-3,27.36246,R,ugm-3
13-01-2022,11:00,2.91732,R,ugm-3,11.80372,R,ugm-3,16.27688,R,ugm-3
13-01-2022,12:00,3.16636,R,ugm-3,10.39442,R,ugm-3,15.24943,R,ugm-3
13-01-2022,13:00,2.59713,R,ugm-3,10.34794,R,ugm-3,14.33014,R,ugm-3
13-01-2022,14:00,3.37982,R,ugm-3,11.41901,R,ugm-3,16.60133,R,ugm-3
13-01-2022,15:00,3.41540,R,ugm-3,14.82533,R,ugm-3,20.06220,R,ugm-3
13-01-2022,16:00,3.66444,R,ugm-3,21.79781,R,ugm-3,27.41653,R,ugm-3
13-01-2022,17:00,2.49039,R,ugm-3,23.86836,R,ugm-3,27.68691,R,ugm-3
13-01-2022,18:00,1.70770,R,ugm-3,17.93045,R,ugm-3,20.54888,R,ugm-3
13-01-2022,19:00,0.88943,R,ugm-3,13.99382,R,ugm-3,15.35759,R,ugm-3
13-01-2022,20:00,0.92500,R,ugm-3,12.53329,R,ugm-3,13.95161,R,ugm-3
13-01-2022,21:00,1.63655,R,ugm-3,17.87732,R,ugm-3,20.38665,R,ugm-3
13-01-2022,22:00,1.52981,R,ugm-3,21.93444,R,ugm-3,24.28013,R,ugm-3
13-01-2022,23:00,2.02789,R,ugm-3,31.49925,R,ugm-3,34.60864,R,ugm-3
13-01-2022,24:00,2.81059,R,ugm-3,26.02713,R,ugm-3,30.33664,R,ugm-3
14-01-2022,01:00,0.09483,R,ugm-3,13.04436,R,ugm-3,13.18976,R,ugm-3
14-01-2022,02:00,0.23708,R,ugm-3,8.21344,R,ugm-3,8.57695,R,ugm-3
14-01-2022,03:00,0.17781,R,ugm-3,8.32233,R,ugm-3,8.59497,R,ugm-3
14-01-2022,04:00,0.14225,R,ugm-3,9.78233,R,ugm-3,10.00043,R,ugm-3
14-01-2022,05:00,0.24893,R,ugm-3,10.37553,R,ugm-3,10.75722,R,ugm-3
14-01-2022,06:00,1.45802,R,ugm-3,20.84648,R,ugm-3,23.08208,R,ugm-3
14-01-2022,07:00,6.72113,R,ugm-3,36.34509,R,ugm-3,46.65067,R,ugm-3
14-01-2022,08:00,12.80215,R,ugm-3,45.61639,R,ugm-3,65.24607,R,ugm-3
14-01-2022,09:00,81.50699,R,ugm-3,63.35684,R,ugm-3,188.33249,R,ugm-3
14-01-2022,10:00,63.26394,R,ugm-3,57.21955,R,ugm-3,154.22290,R,ugm-3
14-01-2022,11:00,33.28558,R,ugm-3,54.80525,R,ugm-3,105.84243,R,ugm-3
14-01-2022,12:00,9.31712,R,ugm-3,26.90493,R,ugm-3,41.19098,R,ugm-3
14-01-2022,13:00,8.49920,R,ugm-3,23.94265,R,ugm-3,36.97458,R,ugm-3
14-01-2022,14:00,8.28583,R,ugm-3,24.70226,R,ugm-3,37.40703,R,ugm-3
14-01-2022,15:00,10.02835,R,ugm-3,31.92276,R,ugm-3,47.29935,R,ugm-3
14-01-2022,16:00,13.69118,R,ugm-3,45.06406,R,ugm-3,66.05692,R,ugm-3
14-01-2022,17:00,29.12488,R,ugm-3,52.31965,R,ugm-3,96.97718,R,ugm-3
14-01-2022,18:00,30.51178,R,ugm-3,55.11223,R,ugm-3,101.89631,R,ugm-3
14-01-2022,19:00,54.87142,R,ugm-3,53.06014,R,ugm-3,137.19514,R,ugm-3
14-01-2022,20:00,98.71877,R,ugm-3,56.96669,R,ugm-3,208.33336,R,ugm-3
14-01-2022,21:00,72.36769,R,ugm-3,55.96392,R,ugm-3,166.92616,R,ugm-3
14-01-2022,22:00,32.75216,R,ugm-3,46.00112,R,ugm-3,96.22039,R,ugm-3
14-01-2022,23:00,19.52327,R,ugm-3,40.28400,R,ugm-3,70.21926,R,ugm-3
14-01-2022,24:00,2.98717,R,ugm-3,34.39440,R,ugm-3,38.97466,R,ugm-3
15-01-2022,01:00,2.60671,R,ugm-3,35.84624,R,ugm-3,39.84313,R,ugm-3
15-01-2022,02:00,2.27494,R,ugm-3,37.86797,R,ugm-3,41.35616,R,ugm-3
15-01-2022,03:00,2.70150,R,ugm-3,40.97849,R,ugm-3,45.12072,R,ugm-3
15-01-2022,04:00,1.45739,R,ugm-3,38.23893,R,ugm-3,40.47356,R,ugm-3
15-01-2022,05:00,1.77730,R,ugm-3,36.39749,R,ugm-3,39.12264,R,ugm-3
15-01-2022,06:00,4.94089,R,ugm-3,38.67957,R,ugm-3,46.25550,R,ugm-3
15-01-2022,07:00,13.00983,R,ugm-3,40.19483,R,ugm-3,60.14295,R,ugm-3
15-01-2022,08:00,11.80126,R,ugm-3,38.31940,R,ugm-3,56.41441,R,ugm-3
15-01-2022,09:00,11.26807,R,ugm-3,35.84070,R,ugm-3,53.11817,R,ugm-3
15-01-2022,10:00,16.52888,R,ugm-3,32.58352,R,ugm-3,57.92745,R,ugm-3
15-01-2022,11:00,20.15457,R,ugm-3,30.37449,R,ugm-3,61.27773,R,ugm-3
15-01-2022,12:00,28.79224,R,ugm-3,32.09843,R,ugm-3,76.24592,R,ugm-3
15-01-2022,13:00,28.96997,R,ugm-3,31.66381,R,ugm-3,76.08381,R,ugm-3
15-01-2022,14:00,32.56011,R,ugm-3,39.07379,R,ugm-3,88.99860,R,ugm-3
15-01-2022,15:00,29.50316,R,ugm-3,35.97976,R,ugm-3,81.21730,R,ugm-3
15-01-2022,16:00,27.79695,R,ugm-3,37.89343,R,ugm-3,80.51483,R,ugm-3
15-01-2022,17:00,27.33485,R,ugm-3,37.57527,R,ugm-3,79.48813,R,ugm-3
15-01-2022,18:00,27.26376,R,ugm-3,36.71161,R,ugm-3,78.51546,R,ugm-3
15-01-2022,19:00,24.27790,R,ugm-3,35.56197,R,ugm-3,72.78756,R,ugm-3
15-01-2022,20:00,18.51945,R,ugm-3,35.31328,R,ugm-3,63.70938,R,ugm-3
15-01-2022,21:00,18.02181,R,ugm-3,35.21174,R,ugm-3,62.84479,R,ugm-3